Regional Weather Roundup
Issued by NWS

Home | Current Version | Previous Version | Text Only | Print | Product List | Glossary Off
Versions: 1 2 3 4 5 6 7 8 9 10 11 12 13 14 15 16 17 18 19 20 21 22 23 24 25 26 27 28 29 30 31 32 33 34 35 36 37 38 39 40 41 42 43 44 45 46 47 48 49 50

000
ASUS43 KBIS 030302
RWRND

NORTH DAKOTA REGIONAL WEATHER ROUNDUP
NATIONAL WEATHER SERVICE BISMARCK ND
1000 PM CDT TUE JUN 02 2015

NOTE: "FAIR" INDICATES FEW OR NO CLOUDS BELOW 12,000 FEET WITH NO
SIGNIFICANT WEATHER AND/OR OBSTRUCTIONS TO VISIBILITY.


NDZ001>003-009>011-017-030400-
NORTHWEST NORTH DAKOTA

CITY           SKY/WX    TMP DP  RH WIND       PRES   REMARKS
WILLISTON      PTCLDY    56  52  86 NE15      29.88R
MINOT          LGT RAIN  55  52  89 N23G33    29.81S
MINOT AFB      LGT RAIN  54  54 100 N25G32    29.81R
$$

NDZ018>021-031>035-040>046-030400-
SOUTHWEST NORTH DAKOTA

CITY           SKY/WX    TMP DP  RH WIND       PRES   REMARKS
BISMARCK       PTCLDY    68  64  87 CALM      29.74S
DICKINSON      CLOUDY    58  53  84 W16       29.81S
GARRISON         N/A     63  60  90 NE9       29.76R
HETTINGER ARPT MOCLDY    59  52  77 NW14      29.86R
$$

NDZ004>008-012>016-024-026-027-054-030400-
NORTHEAST NORTH DAKOTA

CITY           SKY/WX    TMP DP  RH WIND       PRES   REMARKS
GRAND FORKS    CLOUDY    63  61  93 NE13      29.75S
GRND FRKS AFB  MOCLDY    61  60  95 NE10      29.76S
DEVILS LAKE    CLOUDY    61  55  82 E12       29.77S
$$

NDZ022-023-025-028>030-036>039-047>053-030400-
SOUTHEAST NORTH DAKOTA

CITY           SKY/WX    TMP DP  RH WIND       PRES   REMARKS
FARGO          CLOUDY    76  63  64 SE16      29.67F
JAMESTOWN      CLOUDY    66  63  90 N15       29.69F
$$




USA.gov is the U.S. government's official web portal to all federal, state and local government web resources and services.